Epoch 2010 Sept. 1.0 TT = JDT 2455440.5
T 2010 Aug. 16.15775 TT MPCW
q 1.4945010 (2000.0) P Q
n 0.17178716 Peri. 153.49712 -0.04708613 +0.97767002
a 3.2048589 Node 113.21236 -0.95146734 +0.01852651
e 0.5336765 Incl. 12.87601 -0.30412627 -0.20932775
P 5.74
From 110 observations 2010 Apr. 13-2016 June 4, mean residual 0".3.